K2MST Weather Reports


time (UTC)temp
F
wind
direction
speed
knots
gust
knots
rain 1hr
in
rain 24hr
in
rain mn
in
humidity
%
barometer
mb
20260904130521 72 293 1.7 4.3 0.00 0.00 0.00 81 1012.1
20260904125521 71 293 2.6 4.3 0.00 0.00 0.00 81 1011.9
20260904124521 71 23 1.7 4.3 0.00 0.00 0.00 81 1012.1
20260904123521 71 293 2.6 5.2 0.00 0.00 0.00 81 1012.1
20260904122541 71 270 0.9 3.5 0.00 0.00 0.00 81 1012.3
20260904121521 71 315 1.7 4.3 0.00 0.00 0.00 81 1012.2
20260904120521 70 293 0.9 3.5 0.00 0.00 0.00 82 1012.2
20260904115521 70 293 1.7 4.3 0.00 0.00 0.00 82 1012.1
20260904114521 70 293 1.7 4.3 0.00 0.00 0.00 82 1012.0
20260904113523 70 248 0.9 2.6 0.00 0.00 0.00 83 1012.0
20260904112522 69 293 1.7 4.3 0.00 0.00 0.00 83 1011.9
20260904111520 69 248 1.7 4.3 0.00 0.00 0.00 83 1011.9
20260904110541 69 293 0.9 2.6 0.00 0.00 0.00 83 1011.8
20260904105521 69 248 1.7 5.2 0.00 0.00 0.00 84 1011.5
20260904104522 69 270 0.9 1.7 0.00 0.00 0.00 83 1011.6
20260904103520 69 248 0.9 2.6 0.00 0.00 0.00 84 1011.7
20260904102520 69 248 0.9 2.6 0.00 0.00 0.00 85 1011.6
20260904101540 69 248 0.9 1.7 0.00 0.00 0.00 84 1011.3
20260904100520 69 270 0.9 2.6 0.00 0.00 0.00 83 1011.2
20260904095522 69 270 0.9 2.6 0.00 0.00 0.00 83 1011.2
20260904094520 69 270 0.9 1.7 0.00 0.00 0.00 83 1011.0
20260904093541 70 0.0 2.6 0.00 0.00 0.00 83 1011.1
20260904092520 70 270 1.7 4.3 0.00 0.00 0.00 83 1011.0
20260904091520 70 270 2.6 5.2 0.00 0.00 0.00 83 1011.0
20260904090520 71 270 2.6 5.2 0.00 0.00 0.00 83 1010.9
20260904085520 71 293 0.9 4.3 0.00 0.00 0.00 83 1010.7
20260904084521 71 293 1.7 3.5 0.00 0.00 0.00 83 1010.7
20260904083520 71 293 1.7 4.3 0.00 0.00 0.00 83 1010.5
20260904082520 71 293 1.7 5.2 0.00 0.00 0.00 84 1010.6
20260904081520 71 293 0.9 3.5 0.00 0.00 0.00 84 1010.4
20260904080540 72 293 1.7 5.2 0.00 0.00 0.00 84 1010.4
20260904075521 71 293 1.7 4.3 0.00 0.00 0.00 84 1010.3
20260904074540 71 293 0.9 3.5 0.00 0.00 0.00 84 1010.2
20260904073520 71 293 1.7 3.5 0.00 0.00 0.00 86 1010.1
20260904072522 71 293 1.7 3.5 0.00 0.00 0.00 88 1010.0
20260904071520 70 0.0 0.9 0.00 0.00 0.00 90 1010.0
20260904070520 70 0.0 0.9 0.00 0.00 0.00 90 1010.1
20260904065520 70 0.0 1.7 0.00 0.00 0.00 90 1010.0
20260904064520 70 0.0 0.0 0.00 0.00 0.00 90 1010.0
20260904063520 70 0.0 0.0 0.00 0.00 0.00 90 1010.1
20260904062522 70 0.0 0.0 0.00 0.00 0.00 90 1010.2
20260904061541 70 0.0 0.9 0.00 0.00 0.00 90 1010.2
20260904060521 70 0.0 0.0 0.00 0.00 0.00 90 1010.4
20260904055521 70 0.0 0.9 0.00 0.00 0.00 90 1010.5
20260904054521 70 0.0 0.0 0.00 0.00 0.00 90 1010.4
20260904053521 70 0.0 0.0 0.00 0.00 0.00 90 1010.5
20260904052524 70 0.0 1.7 0.00 0.00 0.00 90 1010.6
20260904051522 70 158 0.9 2.6 0.00 0.00 0.00 89 1010.7
20260904050521 70 180 0.9 1.7 0.00 0.00 0.00 89 1010.7
20260904045521 70 158 1.7 3.5 0.00 0.00 0.00 89 1010.8
20260904044521 70 180 1.7 3.5 0.00 0.00 0.00 89 1010.7
20260904043521 71 180 2.6 4.3 0.00 0.00 0.00 88 1010.7
20260904042521 71 180 0.9 3.5 0.00 0.00 0.00 88 1010.7
20260904041541 71 0.0 1.7 0.00 0.00 0.00 87 1010.6
20260904040541 71 0.0 0.0 0.00 0.00 0.00 87 1010.4
20260904035521 71 0.0 1.7 0.00 0.00 0.00 87 1010.6
20260904034521 71 158 0.9 1.7 0.00 0.00 0.00 86 1010.5
20260904033521 72 203 0.9 1.7 0.00 0.00 0.00 86 1010.5
20260904032521 72 180 1.7 3.5 0.00 0.00 0.00 85 1010.4
20260904031541 72 180 0.9 3.5 0.00 0.00 0.00 84 1010.6
20260904030522 72 0.0 1.7 0.00 0.00 0.00 84 1010.7
20260904025521 72 180 0.9 2.6 0.00 0.00 0.00 83 1010.7
20260904024521 73 203 2.6 4.3 0.00 0.00 0.00 84 1010.7
20260904023521 73 180 1.7 2.6 0.00 0.02 0.00 83 1010.7
20260904022521 73 158 1.7 2.6 0.00 0.02 0.00 81 1010.9
20260904021521 74 158 1.7 2.6 0.00 0.03 0.00 79 1010.6
20260904020521 74 0.0 0.9 0.00 0.03 0.00 78 1010.8
20260904015521 75 180 0.9 1.7 0.00 0.03 0.00 77 1010.9
20260904014521 75 0.0 0.9 0.00 0.05 0.00 75 1010.9
20260904013521 76 0.0 1.7 0.00 0.05 0.00 73 1011.0
20260904012522 77 0.0 0.9 0.00 0.05 0.00 70 1010.5
20260904011541 77 23 0.9 1.7 0.00 0.06 0.00 69 1010.7
20260904010521 77 0.0 0.0 0.00 0.09 0.00 69 1010.9
20260904005520 77 0.0 0.0 0.00 0.11 0.00 68 1010.7
20260904004521 78 0.0 1.7 0.00 0.12 0.00 67 1010.9
20260904003521 78 0 0.9 1.7 0.00 0.12 0.00 66 1010.8
20260904002521 78 0 0.9 1.7 0.00 0.12 0.00 66 1010.8
20260904001540 78 0 1.7 2.6 0.00 0.12 0.00 66 1010.6
20260904000520 78 338 0.9 2.6 0.00 0.12 0.00 67 1010.6
20260903235520 79 0.0 1.7 0.00 0.12 0.00 68 1010.6
20260903234541 79 338 1.7 3.5 0.00 0.12 0.00 65 1010.4
20260903233520 79 338 1.7 2.6 0.00 0.12 0.00 65 1010.6
20260903232520 79 338 2.6 5.2 0.00 0.12 0.00 66 1010.5
20260903231520 79 338 4.3 5.2 0.00 0.12 0.00 66 1010.5
20260903230520 80 23 4.3 6.1 0.00 0.12 0.00 67 1010.1
20260903225520 80 338 3.5 5.2 0.00 0.12 0.00 67 1010.2
20260903224520 80 23 3.5 6.1 0.00 0.12 0.00 67 1010.1
20260903223520 81 23 5.2 7.8 0.00 0.12 0.00 66 1010.0
20260903222520 82 23 2.6 4.3 0.00 0.12 0.00 62 1009.8
20260903221520 82 0 0.9 2.6 0.00 0.12 0.00 60 1010.0
20260903220520 83 23 2.6 3.5 0.00 0.12 0.00 60 1009.9
20260903215520 84 338 1.7 3.5 0.00 0.12 0.00 59 1009.9
20260903214520 83 270 1.7 3.5 0.00 0.12 0.00 61 1009.9
20260903213520 83 338 2.6 5.2 0.00 0.12 0.00 60 1010.0
20260903212540 84 338 2.6 5.2 0.00 0.12 0.00 59 1009.9
20260903211521 84 293 2.6 6.1 0.00 0.12 0.00 58 1009.9
20260903210520 85 315 2.6 4.3 0.00 0.12 0.00 57 1010.1
20260903205520 84 248 2.6 5.2 0.00 0.12 0.00 59 1010.2
20260903204520 84 338 1.7 4.3 0.00 0.12 0.00 58 1010.3
20260903203520 84 270 2.6 6.1 0.00 0.12 0.00 58 1010.4
20260903202520 84 293 1.7 3.5 0.00 0.12 0.00 58 1010.4
20260903201520 84 338 2.6 5.2 0.00 0.12 0.00 54 1010.4
20260903200520 86 293 1.7 3.5 0.00 0.12 0.00 54 1010.4
20260903195542 86 293 3.5 8.7 0.00 0.12 0.00 55 1010.3
20260903194522 85 293 3.5 8.7 0.00 0.12 0.00 55 1010.4
20260903193542 84 270 3.5 8.7 0.00 0.12 0.00 57 1010.6
20260903192521 85 315 3.5 6.1 0.00 0.12 0.00 56 1010.7
20260903191521 85 0 1.7 4.3 0.00 0.12 0.00 56 1010.7
20260903190521 84 293 3.5 8.7 0.00 0.12 0.00 55 1010.8
20260903185521 84 0 2.6 4.3 0.00 0.12 0.00 56 1010.9
20260903184521 84 293 2.6 5.2 0.00 0.12 0.00 55 1011.0
20260903183521 84 338 1.7 4.3 0.00 0.12 0.00 56 1011.0
20260903182521 84 23 2.6 6.1 0.00 0.12 0.00 57 1010.9
20260903181521 85 338 2.6 8.7 0.00 0.12 0.00 56 1011.0
20260903180521 84 338 3.5 7.0 0.00 0.12 0.00 57 1011.0
20260903175521 84 315 2.6 5.2 0.00 0.12 0.00 55 1011.1
20260903174521 83 23 3.5 10.4 0.00 0.12 0.00 56 1011.2
20260903173521 82 338 1.7 3.5 0.00 0.12 0.00 61 1011.2
20260903172522 81 248 2.6 5.2 0.00 0.12 0.00 63 1011.2
20260903171521 82 270 3.5 5.2 0.00 0.12 0.00 63 1011.3
20260903170542 82 0 1.7 4.3 0.00 0.12 0.00 64 1011.2
20260903165521 82 270 2.6 5.2 0.00 0.12 0.00 62 1011.3
20260903164521 82 248 2.6 5.2 0.00 0.12 0.00 66 1011.5
20260903163521 80 338 3.5 6.1 0.00 0.12 0.00 65 1011.6
20260903162521 80 293 3.5 7.8 0.00 0.12 0.00 67 1011.7
20260903161601 80 293 3.5 7.0 0.00 0.12 0.00 70 1011.7
20260903160521 80 293 3.5 6.1 0.00 0.12 0.00 69 1011.7
20260903155541 79 248 2.6 5.2 0.00 0.12 0.00 73 1011.8
20260903154520 79 293 3.5 8.7 0.00 0.12 0.00 74 1011.8
20260903153521 78 293 3.5 6.1 0.00 0.13 0.00 76 1011.9
20260903152521 78 293 3.5 6.1 0.00 0.19 0.00 77 1012.0
20260903151520 77 270 4.3 8.7 0.00 0.38 0.00 79 1012.0
20260903150521 76 293 4.3 10.4 0.00 0.70 0.00 80 1012.2
20260903145520 76 248 2.6 4.3 0.00 1.21 0.00 82 1012.2
20260903144523 75 270 2.6 5.2 0.00 1.27 0.00 83 1012.1
20260903143520 74 270 1.7 3.5 0.00 1.36 0.00 84 1012.1
20260903142520 74 248 2.6 5.2 0.00 1.55 0.00 84 1012.0
20260903141520 73 225 3.5 8.7 0.00 1.81 0.00 85 1012.0
20260903140520 73 225 1.7 6.1 0.00 1.92 0.00 85 1012.1
20260903135520 73 225 2.6 6.1 0.00 1.96 0.00 85 1011.8
20260903134520 73 225 2.6 5.2 0.00 1.98 0.00 85 1011.9
20260903133522 73 203 1.7 3.5 0.00 2.00 0.00 85 1012.0
20260903132520 73 225 1.7 5.2 0.00 2.00 0.00 84 1011.9
20260903131520 73 225 2.6 3.5 0.00 2.00 0.00 84 1011.9